Regional Weather Roundup
Issued by NWS Cleveland, OH

Home | Current Version | Previous Version | Graphics & Text | Print | Product List | Glossary On
Versions: 1 2 3 4 5 6 7 8 9 10 11 12 13 14 15 16 17 18 19 20 21 22 23 24 25 26 27 28 29 30 31 32 33 34 35 36 37 38 39 40 41 42 43 44 45 46 47 48 49 50
000
ASUS41 KCLE 191810
RWRCLE
OHIO REGIONAL WEATHER ROUNDUP
NATIONAL WEATHER SERVICE WILMINGTON, OH
200 PM EDT SAT APR 19 2014

NOTE: "FAIR" INDICATES FEW OR NO CLOUDS BELOW 12,000 FEET WITH NO
SIGNIFICANT WEATHER AND/OR OBSTRUCTIONS TO VISIBILITY.

OHZ001>008-015>018-024>027-034-035-043-044-191900-
   NORTHWEST OHIO

CITY           SKY/WX    TMP DP  RH WIND       PRES   REMARKS
DEFIANCE       SUNNY     55  33  43 E9G20     30.40F
FINDLAY        SUNNY     55  31  39 NE17      30.38F
TOLEDO EXPRESS SUNNY     53  27  36 E12G23    30.41F
TOLEDO METCALF SUNNY     50  28  42 E16G24    30.43F
LIMA           SUNNY     58  38  47 NE15      30.36F
$$

OHZ009>014-019>023-028>033-038-089-191900-
   NORTHEAST OHIO

CITY           SKY/WX    TMP DP  RH WIND       PRES   REMARKS
CLE-HOPKINS    SUNNY     50  32  50 N14       30.42F
CLE-LAKEFRONT  SUNNY     43  36  76 N16       30.40F
CUY CO. ARPT   SUNNY     52  34  50 N18       30.39F
LORAIN-ELYRIA  SUNNY     52  32  46 NE13G20   30.39F
ASHTABULA      SUNNY     49  25  39 E7G22     30.39F
AKRON-CANTON   MOSUNNY   57  21  24 NE10      30.36S
WOOSTER        SUNNY     57  30  35 VRB6G18   30.36F
MANSFIELD      SUNNY     55  31  39 VRB7G16   30.36F
YOUNGSTOWN     MOSUNNY   54  25  32 N12G18    30.35F
$$

OHZ042-051>053-060>062-070>072-077>081-191900-
  SOUTHWEST OHIO

CITY           SKY/WX    TMP DP  RH WIND       PRES   REMARKS
CINC-COVINGTON SUNNY     67  39  35 E10       30.27F
CINC-LUNKEN    SUNNY     67  41  38 E13       30.28F
HAMILTON       SUNNY     66  40  38 E10G21    30.31F
DAYTON         SUNNY     62  39  42 NE15      30.33F
WRIGHT-PAT AFB SUNNY     62  38  41 N7        30.32F
DAYTON GENERAL SUNNY     64  40  41 E8G18     30.30F
WILMINGTON     SUNNY     64  36  35 E8G23     30.30F
$$

OHZ036-037-039>041-045>050-054>059-063>069-073>076-082>088-191900-
  CENTRAL AND SOUTHEAST OHIO

CITY           SKY/WX    TMP DP  RH WIND       PRES   REMARKS
COLUMBUS       SUNNY     65  36  34 VRB7G18   30.32F
OSU AIRPORT    SUNNY     61  37  41 E10       30.33S
BOLTON FIELD   SUNNY     63  39  42 N14       30.32F
RICKENBACK AFB SUNNY     65  32  28 NE12G22   30.30F
NEWARK         SUNNY     62  34  35 VRB5      30.31F
MARION         SUNNY     57  36  45 NE16      30.36F
LANCASTER      SUNNY     64  38  38 E13G18    30.30F
ZANESVILLE     SUNNY     63  34  33 NE9G17    30.30F
NEW PHILLY     SUNNY     59  29  31 N14       30.34F
$$



USA.gov is the U.S. government's official web portal to all federal, state and local government web resources and services.